MICROMAS-2A

Last updated on Thu Apr 06 2023 00:03:45 GMT+0000 (Coordinated Universal Time)

1 43131U 18004W 23095.24649099 .05210679 24015-5 19676-2 0 9995 2 43131 97.3063 185.6513 0011060 270.1747 89.8277 16.24178149291777

Satellite not in orbit